Weather History for KDLS - March, 2013

Change the Weather History Date:

Friday, March 15, 2013

  Actual Average Record
Temperature  
Mean Temperature 54 °F -  
Max Temperature 64 °F 56 °F 69 °F (1969)
Min Temperature 43 °F 36 °F 25 °F (1962)
Degree Days  
Heating Degree Days 12    
Growing Degree Days 4 (Base 50)    
Moisture  
Dew Point 43 °F    
Average Humidity 68    
Maximum Humidity 89    
Minimum Humidity 46    
Precipitation  
Precipitation 0.00 in - - ()
Sea Level Pressure  
Sea Level Pressure 30.17 in    
Wind  
Wind Speed 8 mph (NW)    
Max Wind Speed 17 mph    
Max Gust Speed 25 mph    
Visibility 10 miles    
Events      
Averages and records for this station are not official NWS values.
T = Trace of Precipitation, MM = Missing Value Source: NWS Daily Summary

Daily Weather History Graph

Daily Weather History Graph

Search for Another Location

Airport or City:

Trip Planner

Search our weather history database for the weather conditions in past years. The results will help you decide how hot, cold, wet, or windy it might be!

Date:

Astronomy

Mar. 15, 2013 Rise Set
Actual Time 7:16 AM PDT 7:11 PM PDT
Civil Twilight 6:47 AM PDT 7:40 PM PDT
Nautical Twilight 6:12 AM PDT 8:15 PM PDT
Astronomical Twilight 5:37 AM PDT 8:50 PM PDT
Moon 8:56 AM PDT (3/15) 11:44 PM PDT (3/15)
Length of Visible Light 12h 53m
Length of Day
11h 54m
Waxing Crescent, 16% of the Moon is Illuminated
Mar 15
Waxing Crescent
Mar 19
First Quarter
Mar 27
Full
Apr 2
Last Quarter
Apr 10
New

Hourly Weather History & Observations

Time (PDT) Temp. Windchill Dew Point Humidity Pressure Visibility Wind Dir Wind Speed Gust Speed Precip Events Conditions
12:53 AM 51.1 °F - 44.1 °F 77% 30.17 in 10.0 mi NW 13.8 mph - N/A   Mostly Cloudy
1:53 AM 51.1 °F - 45.0 °F 80% 30.17 in 10.0 mi NW 10.4 mph - N/A   Clear
2:53 AM 50.0 °F - 44.1 °F 80% 30.19 in 10.0 mi Calm Calm - N/A   Scattered Clouds
3:53 AM 48.9 °F - 43.0 °F 80% 30.19 in 10.0 mi East 4.6 mph - N/A   Mostly Cloudy
4:53 AM 45.0 °F 42.6 °F 39.9 °F 82% 30.19 in 10.0 mi SE 4.6 mph - N/A   Scattered Clouds
5:53 AM 46.0 °F - 39.9 °F 79% 30.20 in 10.0 mi Calm Calm - N/A   Mostly Cloudy
6:53 AM 43.0 °F 40.3 °F 39.0 °F 86% 30.20 in 10.0 mi ESE 4.6 mph - N/A   Partly Cloudy
7:53 AM 43.0 °F 39.5 °F 39.9 °F 89% 30.21 in 10.0 mi ESE 5.8 mph - N/A   Clear
8:53 AM 46.0 °F - 41.0 °F 83% 30.22 in 10.0 mi Calm Calm - N/A   Partly Cloudy
9:53 AM 50.0 °F - 43.0 °F 77% 30.22 in 10.0 mi Calm Calm - N/A   Clear
10:53 AM 55.0 °F - 46.0 °F 72% 30.22 in 10.0 mi NE 3.5 mph - N/A   Clear
11:53 AM 57.9 °F - 46.0 °F 65% 30.21 in 10.0 mi NNW 11.5 mph - N/A   Clear
12:53 PM 61.0 °F - 45.0 °F 56% 30.21 in 10.0 mi NNW 11.5 mph - N/A   Clear
1:53 PM 63.0 °F - 45.0 °F 52% 30.18 in 10.0 mi West 9.2 mph - N/A   Clear
2:53 PM 64.0 °F - 43.0 °F 46% 30.16 in 10.0 mi WNW 17.3 mph - N/A   Clear
3:53 PM 62.1 °F - 42.1 °F 48% 30.14 in 10.0 mi WNW 16.1 mph 25.3 mph N/A   Clear
4:53 PM 62.1 °F - 42.1 °F 48% 30.14 in 10.0 mi NW 16.1 mph - N/A   Clear
5:53 PM 60.1 °F - 43.0 °F 53% 30.14 in 10.0 mi NNW 8.1 mph - N/A   Clear
6:53 PM 59.0 °F - 43.0 °F 55% 30.13 in 10.0 mi NW 10.4 mph - N/A   Clear
7:53 PM 57.9 °F - 43.0 °F 58% 30.13 in 10.0 mi WNW 8.1 mph - N/A   Clear
8:53 PM 55.9 °F - 43.0 °F 62% 30.14 in 10.0 mi Calm Calm - N/A   Mostly Cloudy
9:53 PM 55.0 °F - 43.0 °F 64% 30.14 in 10.0 mi West 3.5 mph - N/A   Clear
10:53 PM 54.0 °F - 42.1 °F 64% 30.13 in 10.0 mi WNW 3.5 mph - N/A   Clear
11:53 PM 46.9 °F - 39.9 °F 77% 30.12 in 10.0 mi Calm Calm - N/A   Clear